Flag for Canada Weather past 2 weeks in Denare Beach, Saskatchewan, Canada

Now
55 °F

Overcast.


Feels Like: 55 °F
Forecast: 48 / 62 °F
Wind: 3 mph from Northwest

Location: Nipawin

Current Time: Sep 19, 2014 at 12:53:55 AM

Latest Report: Sep 19, 2014 at 12:00 AM


Visibility: 9 mi

Pressure: 29.51 "Hg

Humidity: 88%

Dew point: 52 °F

Location of Denare BeachLocation

Historic Weather in Denare Beach — Graph

°F

Denare Beach temperature yesterday

Maximum temperature yesterday: 68 °F (at 1:00 PM)
Minimum temperature yesterday: 41 °F (at 12:00 AM)
Average temperature yesterday: 54 °F

Past Weeks' High & Low Weather Summary

 TemperatureHumidityPressure
High70 °F (Sep 15, 4:00 PM)100% (Sep 6, 8:00 AM)30.56 "Hg (Sep 6, 8:00 AM)
Low30 °F (Sep 9, 6:00 AM)31% (Sep 12, 3:00 PM)29.49 "Hg (Sep 18, 6:00 PM)
Average48 °F72%30.08 "Hg
* Reported Sep 3 11:00 PM — Sep 18 11:00 PM, Denare Beach, Weather by CustomWeather, © 2014

Note: Actual official high and low records may vary slightly from our data, if they occured in-between our weather recording intervals... More about our weather records

Advertising

Denare Beach weather history for previous 24 hours

 ConditionsComfort  
Time TempWeatherWind HumidityBarometerVisibility
11:00 PM
Sep 18
55 °FOvercast.5 mph88%29.51 "Hg9 mi
10:00 PM55 °FOvercast.5 mph88%29.51 "Hg9 mi
9:00 PM57 °FOvercast.2 mph82%29.51 "Hg9 mi
8:00 PM59 °FOvercast.5 mph82%29.51 "Hg9 mi
7:00 PM63 °FOvercast.9 mph73%29.50 "Hg9 mi
6:00 PM66 °FPassing clouds.8 mph60%29.49 "Hg9 mi
5:00 PM64 °FScattered clouds.7 mph68%29.49 "Hg9 mi
4:00 PM66 °FPartly sunny.5 mph60%29.50 "Hg9 mi
3:00 PM68 °FScattered clouds.9 mph56%29.51 "Hg9 mi
2:00 PM68 °FPassing clouds.10 mph53%29.51 "Hg9 mi
1:00 PM68 °FPassing clouds.13 mph53%29.52 "Hg9 mi
12:00 PM63 °FSunny.13 mph59%29.57 "Hg9 mi
11:00 AM59 °FSunny.16 mph68%29.60 "Hg9 mi
10:00 AM54 °FScattered clouds.10 mph77%29.62 "Hg9 mi
9:00 AM50 °FSunny.10 mph88%29.64 "Hg9 mi
8:00 AM45 °FScattered clouds.8 mph93%29.67 "Hg9 mi
7:00 AM45 °FPassing clouds.6 mph93%29.70 "Hg9 mi
6:00 AM45 °FPassing clouds.7 mph93%29.72 "Hg9 mi
5:00 AM45 °FOvercast.10 mph93%29.75 "Hg9 mi
4:00 AM41 °FMostly cloudy.7 mph93%29.79 "Hg9 mi
3:00 AM41 °FPassing clouds.7 mph93%29.82 "Hg9 mi
2:00 AM41 °FClear.9 mph93%29.85 "Hg9 mi
1:00 AM41 °FClear.8 mph93%29.89 "Hg9 mi
12:00 AM41 °FClear.8 mph93%29.90 "Hg9 mi
Weather by CustomWeather, © 2014

See weather overviewHow to use our weather pages